Wind_Speed
13 14 12 11 11 12 13 15 14 12 12 12 12 12 12 12 12 12 12 12 12 11 9 9 8 9 7 5 6 5 6 8 9 9 10 12 12 12 13 13 13 13 15
18 16 14 12 11 12 13 14 13 13 12 11 10 11 11 10 10 11 11 11 10 9 9 8 7 6 5 4 4 3 4 6 6 6 7 9 9 9 11 11 13 13 12
20 17 14 13 12 12 13 14 12 12 12 12 11 11 12 11 10 10 10 9 8 7 7 8 8 6 5 5 5 5 2 2 4 5 3 4 7 7 7 9 10 9 10
21 18 16 14 13 11 12 13 12 12 12 12 11 11 11 11 10 8 8 8 7 6 5 5 4 4 4 3 4 4 3 1 2 2 1 0 2 5 7 8 7 8 11
19 18 16 14 13 12 11 13 11 11 11 10 9 9 8 8 8 7 6 5 4 4 4 3 3 2 3 4 5 5 2 2 3 4 3 5 3 3 4 5 6 7 9
20 17 16 14 13 12 12 11 9 8 7 8 8 7 6 5 4 3 3 3 3 2 2 2 3 2 2 3 3 3 4 5 5 5 4 1 4 3 4 5 5 7 8
20 18 16 14 13 12 10 9 9 8 7 6 6 4 4 3 3 3 3 3 3 2 3 3 3 4 4 3 4 4 7 8 7 7 7 5 5 5 4 4 6 6 8
19 17 15 13 12 11 9 9 9 7 6 5 4 3 3 4 4 5 6 5 5 5 4 4 4 4 5 6 5 7 8 7 8 8 9 8 7 6 7 7 8 9 10
15 15 15 13 11 9 9 8 7 6 5 4 4 3 3 3 4 4 5 4 5 5 5 4 4 5 5 6 7 8 8 8 9 10 11 10 9 9 11 11 10 11 11
14 14 13 13 12 11 10 8 7 6 5 5 4 3 1 2 2 3 4 4 4 5 5 5 6 6 6 7 8 8 8 9 10 12 12 12 12 10 9 12 12 11 12
14 14 13 13 13 11 10 8 6 6 5 4 3 4 5 6 6 7 7 7 7 8 8 8 8 7 7 8 9 9 9 11 12 13 13 12 13 10 11 11 10 11 13
16 16 15 14 12 12 10 8 7 6 5 5 5 6 7 7 7 6 4 6 7 7 7 7 6 7 9 8 9 9 10 12 12 13 14 13 13 10 12 12 12 13 14
19 17 17 15 13 12 9 6 6 5 5 5 5 6 5 4 3 5 4 4 7 8 8 9 11 10 9 10 11 11 13 15 15 15 14 12 9 9 11 13 13 14 16
20 19 16 15 13 11 8 5 5 7 6 5 5 5 5 4 4 5 6 6 5 7 7 8 10 10 11 12 13 14 15 16 17 15 16 15 12 9 8 10 13 13 14
20 19 17 15 13 10 8 6 6 6 7 6 6 4 5 5 4 5 2 3 5 7 7 9 10 9 9 10 13 16 17 18 17 17 14 13 13 13 11 12 13 12 11
21 20 18 15 12 11 11 10 7 4 4 6 8 7 7 5 6 5 5 2 3 5 8 8 8 8 8 8 10 13 16 19 20 17 13 12 12 13 16 13 14 11 11
24 22 20 16 12 11 9 9 7 5 5 5 5 4 5 6 7 4 3 4 4 5 10 6 4 6 4 5 11 13 13 16 21 20 16 12 13 14 17 16 14 12 10
26 25 21 18 15 13 10 7 7 8 7 6 7 6 7 8 9 7 4 5 2 6 6 3 4 6 7 7 14 13 11 12 13 15 13 9 14 17 17 15 13 11 10
30 27 24 21 18 15 11 7 7 7 8 8 9 7 6 8 10 7 1 1 2 3 5 3 4 6 7 11 15 10 7 9 9 12 13 11 14 14 14 13 12 11 9
31 28 27 25 20 18 14 10 8 8 8 10 10 11 10 9 8 8 6 4 2 1 5 5 5 7 7 12 9 12 4 3 0 3 8 9 11 10 11 14 12 12 11
31 31 30 28 23 22 17 13 9 9 8 11 10 8 8 8 9 7 6 5 5 4 7 7 9 9 7 9 7 6 10 7 5 2 2 5 8 8 14 15 16 14 13
33 33 31 28 23 24 20 15 8 7 5 6 8 7 8 9 11 9 7 6 6 7 8 7 9 10 9 7 4 2 2 2 3 5 1 1 5 12 16 18 16 17 15
31 34 34 29 26 24 20 15 11 7 6 6 5 7 8 10 9 11 10 8 7 8 8 9 10 9 10 6 3 2 1 2 2 3 7 5 5 9 12 15 16 17 16
34 35 34 29 27 24 21 18 14 12 7 3 5 7 11 13 15 12 11 11 11 11 10 10 12 13 13 9 5 5 6 4 2 2 4 7 7 6 9 13 13 17 16
31 36 35 31 29 26 23 20 17 14 13 9 6 7 9 12 15 12 11 14 18 18 17 14 12 12 15 13 10 10 8 3 2 3 2 3 6 6 5 7 8 7 6
27 32 35 34 31 29 25 24 22 19 17 14 12 12 11 8 9 12 12 13 18 23 22 18 16 16 17 17 16 15 7 7 4 3 1 3 6 7 9 7 6 6 5
Wind_Direction
159 155 143 140 136 130 128 128 128 127 126 120 119 117 113 109 109 114 114 118 121 124 129 126 127 135 129 116 94 90 82 87 90 95 97 99 110 112 113 120 121 120 127
156 156 148 145 142 136 134 130 134 139 135 130 133 124 120 116 116 119 123 124 126 131 130 130 141 141 143 138 126 129 103 95 95 93 97 87 87 110 111 125 132 127 133
157 154 154 149 145 139 131 133 136 140 137 139 131 130 123 124 128 131 129 127 133 139 139 144 151 158 165 180 182 202 189 109 92 70 54 65 74 83 107 121 123 131 134
156 155 157 152 149 149 136 140 141 142 144 140 136 133 132 133 131 125 124 124 131 130 128 124 131 148 170 190 195 219 227 193 102 67 78 162 114 123 122 132 132 150 147
156 158 156 154 157 157 146 152 152 153 149 140 138 139 137 139 142 146 141 135 137 137 130 125 131 160 185 206 211 214 222 234 212 208 234 259 241 153 154 158 169 158 156
155 156 155 159 164 157 162 165 158 159 158 157 158 155 152 155 160 166 165 166 168 165 173 183 178 230 242 229 237 245 229 235 233 240 234 185 176 189 174 183 182 185 186
156 157 160 163 166 166 169 163 171 174 177 165 164 169 178 184 186 203 224 236 232 217 219 220 222 226 231 243 247 245 239 235 237 237 228 224 225 220 216 205 201 203 209
157 159 163 166 167 172 170 178 174 172 169 169 169 186 205 221 231 234 236 237 237 234 233 233 232 236 241 241 241 241 241 240 237 237 231 240 244 235 229 224 214 214 204
163 166 171 175 175 173 175 179 178 184 178 185 189 203 220 229 241 246 243 243 241 241 241 251 253 247 248 251 245 248 256 254 255 242 242 244 258 259 253 234 223 221 220
174 180 181 180 177 177 179 183 187 181 176 179 179 182 227 267 255 253 257 258 266 269 265 256 262 266 259 265 276 278 273 267 257 247 253 267 268 274 241 235 234 226 224
187 190 192 191 183 182 187 185 184 184 182 193 216 248 257 257 254 256 259 273 270 266 270 266 267 273 284 275 270 274 272 266 261 262 266 268 274 281 240 239 251 247 237
194 197 197 194 190 190 187 184 180 187 199 232 245 251 257 265 249 241 251 250 264 270 262 268 276 268 264 271 272 269 267 264 265 265 263 266 279 258 227 231 246 251 247
191 196 200 197 194 193 181 185 199 216 241 258 258 269 264 263 229 239 258 295 260 268 272 275 271 270 276 281 281 279 269 269 268 263 261 264 268 256 239 239 254 256 251
199 196 196 196 200 198 193 209 244 255 251 249 279 289 295 271 245 238 276 282 260 274 279 283 281 284 281 276 276 274 271 269 265 268 263 264 271 252 239 247 257 251 252
201 197 194 196 203 206 218 235 271 259 244 250 267 278 296 290 283 281 254 282 283 287 300 293 290 287 283 283 282 279 274 269 271 272 284 277 267 259 242 247 255 257 257
200 198 196 203 211 225 233 241 259 257 240 259 263 266 288 302 310 281 279 281 309 318 306 290 298 297 279 289 309 298 279 268 261 264 273 272 246 246 251 237 250 254 252
200 195 197 201 209 220 219 230 239 256 286 269 256 261 282 300 316 327 348 328 285 334 342 302 286 317 290 300 319 314 277 272 254 242 245 267 243 237 235 229 233 235 241
204 206 203 201 200 198 209 218 248 272 285 271 278 279 265 288 299 312 322 25 36 319 329 337 337 315 304 313 322 309 282 261 254 242 242 213 235 234 220 223 227 230 242
209 210 208 205 206 205 213 225 234 256 273 277 280 274 274 280 280 283 306 232 325 352 353 310 324 325 316 334 336 329 266 264 264 248 235 201 222 206 211 219 230 240 243
211 212 212 208 212 212 215 214 226 241 259 262 265 272 272 276 269 263 259 255 249 34 15 9 337 341 324 333 341 18 341 276 240 205 215 207 190 200 219 224 231 241 231
213 212 212 209 214 210 209 210 222 233 266 261 266 270 255 254 246 256 237 273 266 318 338 342 341 347 337 342 317 320 30 38 50 51 248 210 213 220 235 233 235 234 222
211 210 210 214 210 200 206 213 215 228 256 279 270 250 238 258 253 252 261 297 304 310 329 316 324 338 322 329 333 331 331 332 17 51 -0 248 258 238 227 230 238 227 220
206 209 211 215 210 206 206 206 212 227 254 289 242 236 251 262 262 260 262 273 281 294 306 305 299 302 290 293 295 252 322 261 323 6 44 29 285 262 245 238 241 225 224
208 211 213 215 207 206 208 209 212 223 241 280 257 249 260 267 266 261 264 271 275 268 273 280 280 282 280 278 264 260 239 227 175 17 27 300 300 277 255 239 234 224 226
207 212 214 217 216 214 217 220 222 229 242 251 256 258 285 289 249 260 273 278 276 269 259 260 269 281 277 273 255 250 238 234 111 128 276 271 300 271 249 241 227 226 238
208 214 217 217 220 221 225 225 228 231 237 242 248 258 276 298 259 265 269 286 291 274 263 267 283 288 286 280 271 252 236 27 349 254 224 281 255 259 239 225 199 198 205
Height
803 805 806 808 809 810 811 812 814 815 816 816 817 817 818 819 820 821 821 822 823 823 825 826 827 827 827 828 828 828 828 828 829 829 829 830 832 832 833 834 835 835 836
802 805 807 808 810 812 813 813 814 816 816 817 818 818 819 821 822 822 823 823 824 825 826 828 827 828 828 829 829 829 829 829 830 831 832 833 834 835 834 836 835 837 839
803 806 808 810 812 814 814 814 815 816 817 818 818 819 820 821 822 823 823 824 825 826 827 827 827 827 828 828 829 829 830 831 832 834 834 835 836 836 837 838 838 839 839
803 806 809 812 813 815 815 814 815 816 818 818 819 820 821 822 822 823 824 825 826 827 827 827 828 829 828 829 830 831 831 833 835 836 836 834 835 836 837 837 838 839 839
804 808 810 812 814 815 815 815 816 817 819 821 822 821 822 822 823 824 825 826 826 826 827 827 827 828 829 830 830 831 834 835 834 834 833 834 835 836 837 839 839 839 840
805 808 811 812 814 815 815 816 818 820 821 821 820 821 822 823 823 825 826 826 826 826 826 826 827 828 829 830 832 834 834 834 833 834 834 834 835 836 837 838 839 841 841
806 809 812 812 814 815 817 818 819 820 820 821 822 822 823 823 824 825 825 825 825 825 825 826 827 828 830 832 832 832 830 830 832 832 832 833 834 836 838 840 841 842 843
808 811 812 813 815 817 819 819 820 821 822 822 822 823 824 824 825 825 824 824 825 824 825 825 827 828 829 829 830 828 827 830 830 832 831 832 834 835 835 835 838 839 840
811 812 813 815 816 819 819 820 821 822 823 823 822 823 823 824 824 824 824 825 824 824 825 826 826 826 827 828 827 826 830 832 833 832 832 832 834 834 835 835 835 837 839
812 813 814 815 817 819 819 820 821 823 823 823 823 823 824 824 824 824 824 824 824 824 824 824 825 825 825 827 829 829 830 831 831 831 832 833 833 834 836 835 835 837 838
812 813 814 816 818 819 819 820 821 822 823 822 824 825 824 823 824 823 824 823 823 822 823 823 824 825 826 827 826 828 829 828 828 829 831 833 833 835 836 836 837 838 839
810 812 814 816 818 819 820 821 822 822 822 822 824 824 823 824 824 823 823 823 821 821 822 822 824 824 823 824 825 826 825 824 825 827 827 828 829 829 831 833 834 836 837
809 812 813 816 818 819 820 821 822 823 823 823 823 823 823 823 823 822 822 822 821 820 821 822 821 822 823 823 823 823 824 824 825 824 824 825 827 828 829 833 834 833 835
809 811 813 816 818 819 821 821 822 823 823 823 823 822 822 822 822 822 821 819 819 819 820 820 820 821 821 820 820 820 821 821 821 822 823 825 827 827 829 831 831 830 831
809 811 814 816 817 819 821 821 822 822 822 823 822 822 822 822 821 821 820 820 819 819 819 819 819 819 819 818 818 818 818 819 819 820 823 824 825 828 827 829 830 828 830
808 811 813 816 817 819 820 821 821 822 822 822 822 822 822 821 821 820 820 820 820 819 819 818 818 817 817 817 818 817 816 816 816 818 819 820 821 822 825 825 827 828 829
807 809 812 814 816 817 819 820 821 822 822 822 822 822 822 822 821 821 820 820 820 819 818 816 816 816 815 816 815 814 813 811 809 811 813 816 818 820 821 823 824 825 826
806 807 811 813 815 817 818 820 820 820 821 821 822 822 822 822 822 821 819 819 819 819 818 817 816 815 815 815 813 810 807 806 806 808 810 809 815 816 819 820 822 822 824
804 806 809 812 814 816 819 819 820 820 819 820 820 820 821 821 821 820 820 819 819 819 818 817 816 814 813 812 810 808 806 804 804 805 806 808 810 814 817 819 821 822 824
801 805 807 810 813 816 817 819 819 819 818 818 818 818 819 820 820 820 820 820 820 819 818 816 814 814 813 812 810 807 804 804 803 803 806 808 809 810 814 818 819 821 822
799 802 804 807 810 813 814 816 817 817 817 816 817 817 817 819 820 820 820 820 820 819 818 816 814 814 813 811 809 808 807 806 805 805 806 806 809 810 813 815 817 818 820
794 797 802 804 807 810 812 814 816 817 817 816 815 816 817 818 818 819 819 819 819 819 816 815 815 815 814 812 811 810 809 808 806 805 804 806 808 810 810 814 814 814 816
791 795 798 801 804 807 810 813 814 815 815 815 815 816 817 818 818 818 819 819 819 818 816 816 816 815 813 812 811 811 812 810 807 807 806 806 807 809 809 810 811 812 814
786 792 796 798 801 804 807 810 812 813 814 815 815 815 816 817 817 818 819 818 818 817 816 815 815 815 813 812 811 809 806 805 807 810 809 807 808 805 806 807 808 810 811
784 787 792 796 800 802 805 808 810 811 812 813 815 815 815 814 814 816 817 817 816 815 814 813 813 814 812 811 808 805 805 805 806 808 810 809 807 806 805 805 804 806 807
781 785 788 793 796 799 802 804 807 808 810 812 812 813 813 813 814 814 815 814 813 811 811 812 812 811 810 807 805 803 805 810 811 809 807 804 803 801 801 803 802 804 808